This is the latest recevied weather packets stored in our database for station/object PA1CD-13. If no packets are shown the sender has not sent any weather packets the latest 1 day(s).
| Time | Temp. | Humidity | Pressure | Rain* | Wind** | Luminosity | Snow |
|---|---|---|---|---|---|---|---|
| 1778054407 | 12.22° C | 4% | 1008.2 hPa | 0 mm | - | 339 W/m² | - |
| 1778054165 | 12.22° C | 2% | 1008.4 hPa | 0 mm | - | 227 W/m² | - |
| 1778054046 | 12.22° C | 1% | 1008.4 hPa | 0 mm | - | 223 W/m² | - |
| 1778053806 | 11.67° C | 1% | 1008.4 hPa | 0 mm | - | 215 W/m² | - |
| 1778053686 | 11.67° C | 1% | 1008.4 hPa | 0 mm | - | 215 W/m² | - |
| 1778053566 | 11.67° C | 1% | 1008.3 hPa | 0 mm | - | 229 W/m² | - |
| 1778053326 | 11.67° C | 1% | 1008.3 hPa | 0 mm | - | 295 W/m² | - |
| 1778052965 | 11.67° C | 1% | 1008.2 hPa | 0 mm | - | 241 W/m² | - |
| 1778052725 | 11.67° C | 1% | 1008.2 hPa | 0 mm | - | 244 W/m² | - |
| 1778052485 | 11.67° C | 1% | 1008.3 hPa | 0 mm | - | 251 W/m² | - |
| 1778052365 | 11.67° C | 1% | 1008.2 hPa | 0 mm | - | 232 W/m² | - |
| 1778052246 | 11.67° C | 1% | 1008.2 hPa | 0 mm | - | 232 W/m² | - |
| 1778051764 | 11.11° C | 1% | 1008.2 hPa | 0 mm | - | 260 W/m² | - |
| 1778051644 | 11.11° C | 1% | 1008.2 hPa | 0 mm | - | 213 W/m² | - |
| 1778051404 | 11.11° C | 1% | 1008.2 hPa | 0 mm | - | 188 W/m² | - |
| 1778051284 | 11.11° C | 1% | 1008.1 hPa | 0 mm | - | 172 W/m² | - |
| 1778051165 | 11.11° C | 1% | 1008.3 hPa | 0 mm | - | 167 W/m² | - |
| 1778050925 | 11.11° C | 1% | 1008.2 hPa | 0 mm | - | 167 W/m² | - |
| 1778050564 | 11.11° C | 1% | 1008.2 hPa | 0 mm | - | 160 W/m² | - |
| 1778050324 | 11.11° C | 1% | 1008.3 hPa | 0 mm | - | 150 W/m² | - |
| 1778050205 | 11.11° C | 1% | 1008.1 hPa | 0 mm | - | 141 W/m² | - |
| 1778050084 | 11.11° C | 1% | 1008.1 hPa | 0 mm | - | 141 W/m² | - |
| 1778049962 | 11.11° C | 1% | 1008.1 hPa | 0 mm | - | 137 W/m² | - |
| 1778049844 | 11.11° C | 1% | 1008.1 hPa | 0 mm | - | 134 W/m² | - |
| 1778049724 | 11.11° C | 1% | 1008 hPa | 0 mm | - | 127 W/m² | - |
* Rain latest hour (hover to see other rain measurements)
** Current wind speed in m/s (hover to see current wind gust speed)